This is the latest recevied weather packets stored in our database for station/object KD4MBW. If no packets are shown the sender has not sent any weather packets the latest 10 day(s).
| Time | Temp. | Humidity | Pressure | Rain* | Wind** | Luminosity | Snow |
|---|---|---|---|---|---|---|---|
| 1787848444 | 29.44° C | 86% | 1015.8 hPa | 0 mm | - | 536 W/m² | - |
| 1787848143 | 28.89° C | 87% | 1015.9 hPa | 0 mm | - | 492 W/m² | - |
| 1787847838 | 28.89° C | 87% | 1015.7 hPa | 0 mm | - | 416 W/m² | - |
| 1787847533 | 28.89° C | 87% | 1015.9 hPa | 0 mm | - | 406 W/m² | - |
| 1787847229 | 28.33° C | 87% | 1015.9 hPa | 0 mm | - | 377 W/m² | - |
| 1787846926 | 28.33° C | 88% | 1015.8 hPa | 0 mm | - | 394 W/m² | - |
| 1787846625 | 28.33° C | 90% | 1015.9 hPa | 0 mm | - | 390 W/m² | - |
| 1787846320 | 27.78° C | 91% | 1015.7 hPa | 0 mm | - | 371 W/m² | - |
| 1787846016 | 27.78° C | 91% | 1015.6 hPa | 0 mm | - | 349 W/m² | - |
| 1787845712 | 27.78° C | 91% | 1015.8 hPa | 0 mm | - | 326 W/m² | - |
| 1787845411 | 27.22° C | 92% | 1015.6 hPa | 0 mm | - | 297 W/m² | - |
| 1787845107 | 27.78° C | 92% | 1016 hPa | 0 mm | - | 274 W/m² | - |
| 1787844803 | 27.22° C | 92% | 1015.7 hPa | 0 mm | - | 257 W/m² | - |
| 1787844502 | 27.22° C | 92% | 1015.9 hPa | 0 mm | - | 242 W/m² | - |
| 1787844197 | 27.22° C | 93% | 1016.3 hPa | 0 mm | - | 216 W/m² | - |
| 1787843896 | 27.22° C | 93% | 1016 hPa | 0 mm | - | 196 W/m² | - |
| 1787843591 | 27.22° C | 93% | 1016.3 hPa | 0 mm | - | 165 W/m² | - |
| 1787843287 | 27.22° C | 94% | 1016.4 hPa | 0 mm | - | 140 W/m² | - |
| 1787842983 | 26.67° C | 93% | 1016.4 hPa | 0 mm | - | 177 W/m² | - |
| 1787842683 | 27.22° C | 93% | 1016.5 hPa | 0 mm | - | 159 W/m² | - |
| 1787842378 | 27.22° C | 94% | 1016.1 hPa | 0 mm | - | 163 W/m² | - |
| 1787842078 | 27.22° C | 94% | 1016.2 hPa | 0 mm | - | 145 W/m² | - |
| 1787841773 | 27.22° C | 93% | 1015.8 hPa | 0 mm | - | 130 W/m² | - |
| 1787841469 | 27.78° C | 93% | 1016.2 hPa | 0 mm | - | 118 W/m² | - |
| 1787841167 | 27.78° C | 92% | 1016 hPa | 0 mm | - | 111 W/m² | - |
* Rain latest hour (hover to see other rain measurements)
** Current wind speed in m/s (hover to see current wind gust speed)